TimeCDT,TemperatureF,Dew PointF,Humidity,Sea Level PressureIn,VisibilityMPH,Wind Direction,Wind SpeedMPH,Gust SpeedMPH,PrecipitationIn,Events,Conditions,WindDirDegrees,DateUTC
12:15 AM,67.5,62.8,85,29.83,10.0,Calm,Calm,-,N/A,,Clear,0,2013-07-01 05:15:00
12:35 AM,66.6,63.0,88,29.83,10.0,Calm,Calm,-,N/A,,Clear,0,2013-07-01 05:35:00
12:55 AM,66.7,63.0,88,29.82,10.0,Calm,Calm,-,N/A,,Clear,0,2013-07-01 05:55:00
1:15 AM,65.7,63.1,92,29.82,10.0,Calm,Calm,-,N/A,,Clear,0,2013-07-01 06:15:00
1:35 AM,65.7,63.1,92,29.82,10.0,Calm,Calm,-,N/A,,Clear,0,2013-07-01 06:35:00
1:55 AM,65.8,63.3,92,29.83,10.0,Calm,Calm,-,N/A,,Clear,0,2013-07-01 06:55:00
2:15 AM,66.4,63.1,89,29.83,10.0,Calm,Calm,-,N/A,,Scattered Clouds,0,2013-07-01 07:15:00
2:35 AM,66.7,63.9,90,29.84,10.0,South,3.5,-,N/A,,Drizzle,190,2013-07-01 07:35:00
2:55 AM,66.6,64.4,93,29.84,10.0,Calm,Calm,-,N/A,Rain,Rain,0,2013-07-01 07:55:00
3:15 AM,66.4,64.8,95,29.83,10.0,East,5.8,-,N/A,Thunderstorm,Thunderstorm,90,2013-07-01 08:15:00
3:35 AM,66.6,63.7,90,29.83,10.0,Calm,Calm,-,N/A,,Mostly Cloudy,0,2013-07-01 08:35:00
3:55 AM,66.0,62.6,89,29.83,10.0,Calm,Calm,-,N/A,,Mostly Cloudy,0,2013-07-01 08:55:00
4:15 AM,66.0,61.9,86,29.83,10.0,Calm,Calm,-,N/A,,Overcast,0,2013-07-01 09:15:00
4:35 AM,66.2,60.8,83,29.83,10.0,Calm,Calm,-,N/A,,Overcast,0,2013-07-01 09:35:00
4:55 AM,65.3,62.8,92,29.84,10.0,West,3.5,-,N/A,,Overcast,280,2013-07-01 09:55:00
5:15 AM,65.7,62.4,89,29.85,10.0,Calm,Calm,-,N/A,,Overcast,0,2013-07-01 10:15:00
5:35 AM,65.3,62.6,91,29.85,10.0,Calm,Calm,-,N/A,,Mostly Cloudy,0,2013-07-01 10:35:00
5:55 AM,63.7,62.4,96,29.86,10.0,Calm,Calm,-,N/A,,Scattered Clouds,0,2013-07-01 10:55:00
6:15 AM,63.9,62.1,94,29.87,10.0,Calm,Calm,-,N/A,,Clear,0,2013-07-01 11:15:00
6:35 AM,65.3,62.6,91,29.87,10.0,Calm,Calm,-,N/A,,Clear,0,2013-07-01 11:35:00
6:55 AM,65.8,62.6,89,29.87,10.0,Calm,Calm,-,N/A,,Clear,0,2013-07-01 11:55:00
7:15 AM,65.7,62.8,90,29.88,10.0,Calm,Calm,-,N/A,,Clear,0,2013-07-01 12:15:00
7:35 AM,67.5,62.8,85,29.88,10.0,Calm,Calm,-,N/A,,Mostly Cloudy,0,2013-07-01 12:35:00
7:55 AM,68.7,62.4,80,29.88,10.0,Calm,Calm,-,N/A,,Mostly Cloudy,0,2013-07-01 12:55:00
8:15 AM,70.5,62.2,75,29.88,10.0,Calm,Calm,-,N/A,,Scattered Clouds,0,2013-07-01 13:15:00
8:35 AM,72.3,63.1,73,29.89,10.0,Calm,Calm,-,N/A,,Scattered Clouds,0,2013-07-01 13:35:00
8:55 AM,73.6,64.2,72,29.89,10.0,Calm,Calm,-,N/A,,Scattered Clouds,0,2013-07-01 13:55:00
9:15 AM,75.7,65.5,70,29.89,10.0,SSE,4.6,-,N/A,,Mostly Cloudy,150,2013-07-01 14:15:00
9:35 AM,75.9,65.3,70,29.89,10.0,ESE,4.6,-,N/A,,Scattered Clouds,110,2013-07-01 14:35:00
9:55 AM,75.9,65.1,69,29.89,10.0,SE,3.5,-,N/A,,Scattered Clouds,130,2013-07-01 14:55:00
10:15 AM,76.5,64.8,67,29.88,10.0,South,4.6,-,N/A,,Mostly Cloudy,180,2013-07-01 15:15:00
10:35 AM,78.3,65.3,64,29.89,10.0,SSW,3.5,-,N/A,,Scattered Clouds,200,2013-07-01 15:35:00
10:55 AM,78.4,65.1,63,29.89,10.0,SW,5.8,-,N/A,,Scattered Clouds,220,2013-07-01 15:55:00
11:15 AM,78.8,65.3,63,29.89,10.0,SSE,6.9,-,N/A,,Scattered Clouds,160,2013-07-01 16:15:00
11:35 AM,79.5,65.1,61,29.89,10.0,South,6.9,-,N/A,,Scattered Clouds,170,2013-07-01 16:35:00
11:55 AM,80.6,66.0,61,29.88,10.0,SSE,4.6,-,N/A,,Scattered Clouds,160,2013-07-01 16:55:00
12:15 PM,81.1,64.9,58,29.87,10.0,South,5.8,-,N/A,,Clear,180,2013-07-01 17:15:00
12:35 PM,82.2,64.9,56,29.86,10.0,SE,5.8,-,N/A,,Scattered Clouds,140,2013-07-01 17:35:00
12:55 PM,82.9,64.0,53,29.85,10.0,SW,6.9,-,N/A,,Scattered Clouds,220,2013-07-01 17:55:00
1:15 PM,84.2,63.9,50,29.85,10.0,SW,8.1,-,N/A,,Clear,220,2013-07-01 18:15:00
1:35 PM,84.2,65.3,53,29.84,10.0,South,6.9,-,N/A,,Scattered Clouds,180,2013-07-01 18:35:00
1:55 PM,83.1,61.5,48,29.84,10.0,South,4.6,-,N/A,,Scattered Clouds,170,2013-07-01 18:55:00
2:15 PM,83.7,62.1,48,29.84,10.0,SSW,5.8,-,N/A,,Clear,200,2013-07-01 19:15:00
2:35 PM,82.2,63.1,52,29.85,10.0,South,4.6,-,N/A,,Clear,180,2013-07-01 19:35:00
2:55 PM,80.6,65.1,59,29.86,10.0,South,3.5,-,N/A,Rain,Light Rain,180,2013-07-01 19:55:00
3:15 PM,79.2,65.1,62,29.87,10.0,SSW,5.8,-,N/A,Rain-Thunderstorm,Rain,210,2013-07-01 20:15:00
3:35 PM,73.2,65.8,78,29.90,7.0,SW,9.2,-,0.01,Rain,Rain,220,2013-07-01 20:35:00
3:55 PM,69.4,65.8,88,29.93,7.0,West,8.1,-,0.04,Rain,Rain,280,2013-07-01 20:55:00
4:15 PM,69.6,65.3,86,29.91,10.0,Calm,Calm,-,0.01,Rain,Light Rain,0,2013-07-01 21:15:00
4:35 PM,70.5,65.7,85,29.89,10.0,Calm,Calm,-,0.01,,Overcast,0,2013-07-01 21:35:00
4:55 PM,72.3,66.4,82,29.88,10.0,ESE,3.5,-,0.01,,Mostly Cloudy,110,2013-07-01 21:55:00
5:15 PM,72.9,67.1,82,29.88,10.0,Calm,Calm,-,N/A,,Clear,0,2013-07-01 22:15:00
5:35 PM,72.7,65.8,79,29.88,10.0,Calm,Calm,-,N/A,,Clear,0,2013-07-01 22:35:00
5:55 PM,74.3,66.0,75,29.89,10.0,ENE,3.5,-,N/A,,Clear,60,2013-07-01 22:55:00
6:15 PM,74.1,65.7,75,29.90,10.0,Calm,Calm,-,N/A,,Clear,0,2013-07-01 23:15:00
6:35 PM,74.7,66.0,74,29.92,10.0,Calm,Calm,-,N/A,,Clear,0,2013-07-01 23:35:00
6:55 PM,73.6,66.0,77,29.91,10.0,Calm,Calm,-,N/A,,Clear,0,2013-07-01 23:55:00
7:15 PM,72.3,66.7,83,29.92,10.0,Calm,Calm,-,N/A,,Clear,0,2013-07-02 00:15:00
7:35 PM,71.2,67.5,88,29.93,10.0,Calm,Calm,-,N/A,,Scattered Clouds,0,2013-07-02 00:35:00
7:55 PM,70.7,67.3,89,29.93,10.0,Calm,Calm,-,N/A,,Mostly Cloudy,0,2013-07-02 00:55:00
8:15 PM,69.4,67.5,93,29.93,10.0,Calm,Calm,-,N/A,,Mostly Cloudy,0,2013-07-02 01:15:00
8:35 PM,68.9,67.1,94,29.93,10.0,Calm,Calm,-,N/A,,Scattered Clouds,0,2013-07-02 01:35:00
8:55 PM,68.2,65.5,91,29.94,10.0,WSW,6.9,-,N/A,,Clear,240,2013-07-02 01:55:00
9:15 PM,68.2,65.3,90,29.94,10.0,West,4.6,-,N/A,,Scattered Clouds,260,2013-07-02 02:15:00
9:35 PM,67.6,64.8,90,29.94,10.0,Calm,Calm,-,N/A,,Clear,0,2013-07-02 02:35:00
9:55 PM,67.3,65.3,93,29.95,10.0,Calm,Calm,-,N/A,,Scattered Clouds,0,2013-07-02 02:55:00
10:15 PM,66.7,64.8,93,29.95,10.0,Calm,Calm,-,N/A,,Scattered Clouds,0,2013-07-02 03:15:00
10:35 PM,66.6,65.3,96,29.95,10.0,Calm,Calm,-,N/A,,Clear,0,2013-07-02 03:35:00
10:55 PM,66.6,65.3,96,29.95,10.0,Calm,Calm,-,N/A,,Clear,0,2013-07-02 03:55:00
11:15 PM,66.4,64.6,94,29.95,10.0,Calm,Calm,-,N/A,,Clear,0,2013-07-02 04:15:00
11:35 PM,66.2,64.4,94,29.95,10.0,Calm,Calm,-,N/A,,Clear,0,2013-07-02 04:35:00
11:55 PM,65.5,64.4,96,29.95,10.0,Calm,Calm,-,N/A,,Scattered Clouds,0,2013-07-02 04:55:00